www.pogodaiklimat.ru

Погода и климат >> Архив погоды >> Австрия >> Кремсмюнстер


ПОГОДА в Кремсмюнстере

  • Прогноз погоды в Кремсмюнстере
  • Монитор погоды в Кремсмюнстере

АРХИВ ПОГОДЫ в Кремсмюнстере

Время (UTC), дата Ветер
(напр.,м/с)
 
Видим.   Явления Облачность Т
(С)
Тd
(С)
f
(%)
Тe
(С)
Тes
(С)
Комфортность P
(гПа)
Po
(гПа)
Тmin
(С)
Tmax
(С)
R
(мм)
R24
(мм)
S
(см)
13 18.06 СВ 2 н/о н/о +28.6 +13.4 39 +30 +30 жарко 1012.9 969.6
14 18.06 СВ 1 н/о н/о +29.4 +13.3 37 +31 +31 жарко 1012.4 969.2
15 18.06 ЮВ 2 35 км 3/3 1500 м
[Cb cap]
+29.2 +13.7 39 +31 +37 жарко 1012.1 968.9
16 18.06 ЮВ 4 н/о н/о +27.6 +15.1 46 +30 +30 жарко 1011.8 968.4
17 18.06 В 5 н/о н/о +26.2 +12.4 42 +28 +28 жарко 1012.2 968.5 0.0
18 18.06 В 4 30 км 5/1 2000 м
[Cu hum Ac lent]
+25.1 +13.8 49 +27 +27 жарко 1012.2 968.4 +18.4 +29.8 0.0
19 18.06 ЮВ 2 н/о н/о +23.3 +14.9 59 +27 +27 душно 1012.5 968.5
20 18.06 В 1 н/о н/о +21.6 +14.5 64 +25 +25 комфорт 1013.0 968.7
21 18.06 ЮЗ 2 н/о н/о +20.6 +13.8 65 +24 +24 комфорт 1013.2 968.7
22 18.06 ЮЗ 4 н/о н/о +19.4 +13.6 69 +21 +21 комфорт 1013.3 968.6
23 18.06 ЮЗ 4 н/о н/о +18.9 +13.6 71 +20 +20 1013.2 968.5
00 19.06 ЮЗ 4 н/о н/о +18.5 +13.4 72 +19 +19 1013.5 968.7
01 19.06 ЮЗ 2 н/о н/о +17.3 +13.1 76 +18 +18 1013.5 968.5
02 19.06 ЮЗ 3 н/о н/о +17.5 +12.7 73 +18 +18 1013.5 968.5
03 19.06 ЮЗ 4 н/о н/о +16.6 +12.3 76 +16 +16 1013.5 968.4
04 19.06 ЮЗ 2 н/о н/о +16.3 +12.3 77 +16 +16 1013.8 968.6
05 19.06 ЮЗ 4 60 км 4/1 2000 м
[Sc Ac cast]
+18.0 +12.4 70 +18 +19 1013.4 968.5
06 19.06 ЮЗ 2 60 км 5/0
[Ac cast]
+19.6 +13.6 68 +22 +25 комфорт 1013.2 968.6 +16.1 +25.3
07 19.06 З 1 н/о н/о +22.0 +12.9 56 +25 +25 комфорт 1012.9 968.6
08 19.06 З 2 н/о н/о +24.5 +12.9 48 +26 +26 жарко 1012.1 968.2
09 19.06 СЗ 2 55 км 4/1 2000 м
[Cu med, cong Ac cuf Ci ing]
+25.8 +12.3 43 +27 +39 жарко 1011.6 967.9
10 19.06 СЗ 1 н/о н/о +27.0 +12.6 41 +29 +29 жарко 1011.1 967.6
11 19.06 ЮЗ 1 н/о н/о +28.2 +12.3 37 +29 +29 жарко 1010.3 967.0
12 19.06 С 2 н/о н/о +28.0 +12.7 39 +29 +29 жарко 1010.0 966.7
13 19.06 З 1 н/о н/о +27.9 +11.8 37 +29 +29 жарко 1009.6 966.3
14 19.06 ЮЗ 2 н/о н/о +27.8 +12.6 39 +29 +29 жарко 1009.6 966.3
15 19.06 Ю 2 35 км 8/3 2000 м
[Cb calv Ac cuf Ci ing]
+29.0 +13.0 37 +30 +34 жарко 1008.7 965.6
16 19.06 Ю 4 н/о н/о +28.3 +13.5 40 +30 +30 жарко 1008.8 965.6
17 19.06 ЮЗ 2 н/о н/о +27.1 +14.1 45 +29 +29 жарко 1009.0 965.6
18 19.06 ЮЗ 2 45 км 10/1 1000 м
[Cu med, cong Ac lent Cs]
+25.7 +13.0 45 +28 +28 жарко 1009.4 965.8 +19.4 +29.9
19 19.06 СЗ 2 н/о н/о +24.0 +13.6 52 +26 +26 жарко 1009.8 966.0
20 19.06 ЮЗ 2 н/о н/о +22.4 +14.2 60 +26 +26 жарко 1010.4 966.3
21 19.06 Ю 3 н/о н/о +21.8 +12.5 55 +24 +24 комфорт 1010.6 966.4 0.0
22 19.06 ЮЗ 4 н/о н/о +20.9 +12.0 57 +23 +23 комфорт 1010.6 966.2
23 19.06 ЮЗ 3 н/о н/о +19.5 +12.4 64 +21 +21 комфорт 1011.1 966.5 0.0
00 20.06 В 1 н/о н/о +17.5 +12.8 74 +19 +19 1011.5 966.6 0.0
01 20.06 ЮЗ 2 н/о н/о +17.6 +12.2 71 +18 +18 1011.5 966.6 0.0
02 20.06 ЮЗ 2 н/о н/о +16.8 +11.7 72 +17 +17 1011.4 966.4
03 20.06 ЮЗ 4 н/о н/о +16.4 +11.5 73 +16 +16 1011.9 966.8 0.0
04 20.06 ЮЗ 5 н/о н/о +17.3 +11.7 70 +17 +17 1012.8 967.8 0.0
05 20.06 ЮЗ 5 45 км 3/1 1500 м
[Sc Ci fib]
+19.8 +11.4 58 +21 +22 комфорт 1013.0 968.4
06 20.06 ЮЗ 4 40 км 9/1 1000 м
[Sc Cs]
+21.5 +12.5 57 +24 +26 комфорт 1012.9 968.5 +16.1 +26.0 0.0
07 20.06 З 5 н/о н/о +22.5 +12.0 51 +25 +25 комфорт 1012.6 968.4
08 20.06 ЮЗ 4 н/о н/о +24.4 +11.8 45 +26 +26 жарко 1012.3 968.4
09 20.06 З 4 45 км 9/0
[Ac cast Ci sp]
+25.3 +11.5 42 +27 +33 жарко 1012.4 968.6 0.0
10 20.06 З 3 н/о н/о +26.5 +12.2 41 +28 +28 жарко 1012.3 968.7
11 20.06 ЮЗ 2 н/о н/о +27.2 +12.3 40 +29 +29 жарко 1012.0 968.5
12 20.06 З 3 н/о н/о +27.8 +10.1 33 +28 +28 жарко 1011.2 967.8 0.0
13 20.06 СЗ 2 н/о н/о +28.7 +12.9 38 +30 +30 жарко 1010.5 967.3
14 20.06 С 2 н/о н/о +28.6 +12.6 37 +30 +30 жарко 1009.8 966.6
15 20.06 С 3 45 км 5/3 600 м
[Cb calv Ac trans]
+28.7 +11.3 34 +29 +33 жарко 1009.2 966.0
16 20.06 З 1 н/о н/о +27.2 +11.6 38 +28 +28 жарко 1009.8 966.4
17 20.06 СЗ 2 н/о н/о +26.1 +12.5 43 +28 +28 жарко 1011.0 967.4
18 20.06 З 9
{18}
22 км гроза, ливневой дождь 10/10 100 м
[Cb cap]
+16.3 +14.1 87 +15 +15 1015.3 970.1 +16.3 +29.0 5
19 20.06 З 7
{16}
н/о ливневой дождь {осадки} н/о +16.5 +14.0 85 +15 +15 1015.5 970.3 2
20 20.06 З 3 н/о ливневой дождь н/о +16.7 +13.7 82 +16 +16 1016.7 971.5 0.1
21 20.06 З 3
{16}
н/о в посл. час осадки {ливн. осадки} н/о +16.7 +14.0 84 +16 +16 1017.0 971.8 2
22 20.06 ЮЗ 3 н/о н/о +16.4 +14.1 86 +16 +16 1017.2 971.9
23 20.06 ЮЗ 5 н/о н/о +16.4 +14.1 86 +15 +15 1016.7 971.4
00 21.06 ЮЗ 2
{16}
н/о {ливн. осадки} н/о +15.9 +13.8 87 +16 +16 1017.0 971.6 2
01 21.06 З 1 н/о н/о +15.4 +13.4 88 +16 +16 1017.3 971.8
02 21.06 З 1 н/о н/о +14.9 +13.0 88 +15 +15 1017.4 971.9
03 21.06 З 2 н/о н/о +14.3 +12.5 89 +14 +14 1017.7 972.0
04 21.06 ЮЗ 2 н/о н/о +14.1 +12.5 90 +14 +14 1018.1 972.4 0.0
05 21.06 ЮЗ 3 500 м туман местами ?/? +14.1 +12.8 92 +13 +13 1018.1 972.4 0.0
06 21.06 ЮЗ 2
{16}
2000 м 4/1 1000 м
[Sc diur, vesp Ac lent Ci fib]
+15.4 +13.5 88 +15 +19 1018.0 972.5 +13.8 +16.9 2
07 21.06 СВ 1 н/о н/о +17.9 +14.5 80 +19 +19 1018.0 972.9
08 21.06 СВ 2 н/о н/о +18.7 +14.1 75 +20 +20 1018.1 973.1 0.0
09 21.06 В 1 12 км 8/1 1000 м
[Cb calv Ac cuf]
+21.0 +13.9 64 +25 +32 комфорт 1017.7 973.1 0.0
10 21.06 В 1 н/о н/о +22.5 +14.7 61 +26 +26 жарко 1017.5 973.1 0.0
11 21.06 С 1 н/о н/о +23.1 +13.6 55 +26 +26 жарко 1017.2 972.9
12 21.06 С 1 н/о н/о +24.4 +13.1 49 +26 +26 жарко 1016.4 972.3 0.0
13 21.06 С 2 н/о н/о +25.6 +11.9 42 +27 +27 жарко 1015.5 971.6
14 21.06 СВ 3 н/о н/о +26.3 +12.0 41 +28 +28 жарко 1014.9 971.1 0.0
15 21.06 СВ 1 20 км 3/1 2000 м
[Cb calv As trans Cc]
+26.9 +11.3 38 +28 +36 жарко 1014.7 971.0 0.0
16 21.06 СВ 2 н/о н/о +26.1 +10.9 39 +27 +27 жарко 1014.3 970.5
17 21.06 СВ 2 н/о н/о +25.2 +10.5 40 +26 +26 жарко 1014.7 970.8
18 21.06 С 2 20 км 9/8 600 м
[Sc Ac inh]
+24.2 +11.1 44 +26 +26 жарко 1015.4 971.3 +15.2 +27.4 0.0
19 21.06 СВ 2 н/о н/о +23.3 +12.5 51 +26 +26 жарко 1016.0 971.8 0.0
20 21.06 ЮЗ 7 н/о осадки н/о +20.8 +13.3 62 +23 +23 комфорт 1017.1 972.5 0.0
21 21.06 ЮЗ 5 н/о в посл. час осадки н/о +20.3 +14.1 68 +23 +23 комфорт 1017.7 973.0 0.0
22 21.06 ЮЗ 5 н/о в посл. час осадки н/о +19.1 +14.2 73 +20 +20 1018.4 973.5 0.0
23 21.06 ЮЗ 4 н/о ливневой дождь н/о +18.9 +14.0 73 +20 +20 1018.6 973.6 0.0
00 22.06 ЮЗ 1 н/о {ливн. осадки} н/о +18.7 +14.3 76 +21 +21 комфорт 1018.8 973.8 0.0
01 22.06 ЮЗ 1 н/о н/о +18.4 +14.5 78 +20 +20 1018.7 973.7
02 22.06 ЮЗ 2 н/о н/о +17.9 +13.8 77 +18 +18 1018.4 973.3
03 22.06 штиль 0 н/о н/о +17.7 +13.9 78 +18 +18 1017.8 972.7 0.0
04 22.06 ЮЗ 2 н/о н/о +17.4 +14.0 80 +18 +18 1017.8 972.6
05 22.06 СВ 1 н/о н/о +17.7 +14.4 81 +19 +19 1017.8 972.7
06 22.06 СВ 3 10 км 9/6 600 м
[Sc Ac trans]
+18.1 +14.9 82 +18 +19 1017.9 972.9 +17.2 +24.3 0.0
07 22.06 СВ 4 н/о в посл. час осадки н/о +18.8 +15.1 79 +20 +20 1017.5 972.6 0.1
08 22.06 В 7 н/о н/о +19.9 +14.9 73 +22 +22 комфорт 1017.1 972.4 0.0
09 22.06 В 9
{14}
8000 м {осадки} 9/6 1000 м
[Sc Ac trans]
+21.6 +15.2 67 +25 +25 комфорт 1016.5 972.0 0.1
10 22.06 В 9
{14}
н/о в посл. час осадки н/о +22.9 +15.5 63 +27 +27 душно 1015.6 971.4 0.0
11 22.06 СВ 9
{14}
н/о в посл. час осадки н/о +23.3 +15.8 63 +28 +28 душно 1015.3 971.2 0.0
12 22.06 В 9
{14}
н/о в посл. час осадки {ливн. осадки} н/о +23.2 +15.6 62 +27 +27 душно 1014.8 970.7 0.1
13 22.06 В 7
{14}
н/о ливневой дождь н/о +23.2 +16.1 64 +28 +28 душно 1013.9 969.8 0.0
14 22.06 В 4 н/о н/о +23.0 +16.6 67 +28 +28 душно 1013.8 969.7 0.0
15 22.06 В 6
{14}
25 км {ливн. осадки} 10/6 1000 м
[Sc As op]
+22.9 +16.0 65 +27 +28 душно 1013.3 969.2 0.0
16 22.06 В 6 н/о н/о +23.0 +12.2 51 +26 +26 жарко 1013.3 969.1
17 22.06 ЮВ 4 н/о н/о +22.3 +11.7 51 +25 +25 комфорт 1013.4 969.1
18 22.06 ЮВ 4
{14}
60 км {ливн. осадки} 8/5 600 м
[Sc Ac cuf]
+21.7 +11.2 51 +24 +24 комфорт 1013.1 968.7 +18.1 +24.1 0.1
19 22.06 В 2 н/о н/о +20.9 +11.2 54 +24 +24 комфорт 1013.4 968.9
20 22.06 С 4 н/о н/о +19.5 +14.2 71 +21 +21 комфорт 1013.9 969.2
21 22.06 С 3 н/о н/о +19.4 +14.7 74 +21 +21 комфорт 1014.6 969.9
22 22.06 Ю 1 н/о н/о +19.1 +14.7 76 +22 +22 комфорт 1015.2 970.4
23 22.06 З 3 н/о н/о +18.6 +14.4 77 +20 +20 1015.3 970.4 0.0
00 23.06 З 6 н/о н/о +17.1 +15.1 88 +16 +16 1015.6 970.5 9
01 23.06 З 4 н/о осадки н/о +16.7 +14.8 89 +16 +16 1015.9 970.7 4
02 23.06 З 4 н/о н/о +16.6 +14.6 88 +16 +16 1015.7 970.5 0.0
03 23.06 З 4 н/о {осадки} н/о +16.6 +14.6 88 +16 +16 1016.0 970.8 4
04 23.06 ЮЗ 3 н/о н/о +16.6 +14.5 87 +16 +16 1016.3 971.1
05 23.06 ЮЗ 2 10 км {дождь} 10/9 300 м
[Sc Ac trans]
+17.0 +14.9 87 +17 +17 1016.6 971.4
06 23.06 З 2 12 км {дождь} 10/4 300 м
[Sc Ac trans Ci fib]
+17.4 +14.8 85 +18 +19 1017.0 971.9 +16.5 +21.9 13
07 23.06 З 2 н/о н/о +17.9 +15.0 83 +18 +18 1017.2 972.2
08 23.06 З 1 н/о н/о +18.8 +14.9 78 +21 +21 комфорт 1017.5 972.6
09 23.06 З 3 20 км 10/6 300 м
[Sc Ac As Cs]
+19.7 +14.9 74 +22 +24 комфорт 1017.3 972.5
10 23.06 З 2 н/о н/о +20.8 +15.0 69 +24 +24 комфорт 1017.5 972.9
11 23.06 З 2 н/о н/о +22.6 +15.5 64 +27 +27 душно 1017.2 972.9
12 23.06 С 2 н/о осадки н/о +21.7 +15.0 66 +25 +25 комфорт 1017.6 973.1 0.0
13 23.06 СВ 2 н/о в посл. час осадки н/о +21.3 +17.5 79 +25 +25 комфорт 1017.7 973.2 2
14 23.06 СВ 3 н/о н/о +23.3 +16.9 67 +28 +28 душно 1017.3 973.1 0.0
15 23.06 В 2 9000 м {дождь} 10/9 200 м
[Cu med, cong Ac und Ci sp]
+22.3 +15.7 66 +26 +27 жарко 1017.5 973.1 2
16 23.06 Ю 4 н/о н/о +22.0 +16.4 71 +26 +26 душно 1017.6 973.2
17 23.06 ЮЗ 3 н/о н/о +21.3 +16.0 72 +25 +25 комфорт 1018.0 973.4 0.0
18 23.06 З 3 25 км слаб. дождь 10/5 300 м
[Sc Ac und Ci fib]
+21.1 +16.8 76 +25 +25 комфорт 1018.4 973.8 +17.3 +24.5 2
19 23.06 Ю 2 н/о н/о +18.6 +16.7 89 +20 +20 1019.6 974.6 12
20 23.06 ЮЗ 2 н/о в посл. час осадки н/о +18.6 +16.6 88 +20 +20 1020.3 975.3 0.6
21 23.06 штиль 0 н/о {осадки} н/о +18.5 +16.7 89 +19 +19 1020.7 975.6 13
22 23.06 СВ 1 н/о н/о +18.0 +16.5 91 +19 +19 1020.9 975.7
23 23.06 ЮЗ 1 н/о н/о +18.1 +16.6 91 +19 +19 1021.1 975.9
00 24.06 ЮЗ 3 н/о {осадки} н/о +18.2 +16.6 90 +19 +19 1021.0 975.9 13
01 24.06 ЮЗ 3 н/о н/о +17.8 +16.0 89 +18 +18 1021.2 976.0
02 24.06 ЮЗ 2 н/о н/о +17.3 +15.7 90 +18 +18 1021.3 976.0
03 24.06 ЮЗ 1 н/о н/о +16.0 +14.7 92 +17 +17 1021.5 976.0
04 24.06 ЮЗ 1 н/о н/о +15.8 +14.8 94 +16 +16 1021.9 976.3
05 24.06 СВ 1 100 м в посл. час осадки ?/? +16.4 +15.4 94 +17 +17 1021.9 976.4 0.1
06 24.06 В 1 500 м {осадки} ?/? +16.9 +15.9 94 +18 +18 1022.2 976.8 +15.8 +21.3 13
07 24.06 В 2 н/о н/о +18.7 +16.2 85 +20 +20 1022.1 977.0
08 24.06 В 2 н/о н/о +21.1 +16.5 75 +25 +25 комфорт 1021.7 977.0
09 24.06 СВ 2 12 км 1/1 1000 м
[Cu med, cong]
+22.4 +15.6 65 +26 +40 жарко 1021.6 977.0
10 24.06 СВ 2 н/о н/о +23.7 +15.6 60 +27 +27 жарко 1021.4 977.0
11 24.06 В 4 н/о н/о +24.8 +14.4 52 +27 +27 жарко 1021.1 976.9
12 24.06 В 6 н/о н/о +25.8 +14.1 48 +28 +28 жарко 1020.5 976.5
13 24.06 В 7 н/о н/о +26.5 +13.7 45 +29 +29 жарко 1020.3 976.4
14 24.06 В 6 н/о н/о +27.1 +14.0 45 +29 +29 жарко 1020.0 976.2
15 24.06 В 7 12 км 1/1 1500 м
[Cu med, cong]
+27.1 +12.9 41 +29 +31 жарко 1019.7 975.9
16 24.06 В 7 н/о н/о +26.7 +13.5 44 +29 +29 жарко 1019.7 975.8
17 24.06 В 7 н/о н/о +25.9 +14.5 49 +28 +28 жарко 1019.8 975.8
18 24.06 В 6 30 км 1/1 1500 м
[Cu med, cong]
+25.4 +14.5 51 +28 +28 жарко 1020.0 975.9 +16.7 +27.5
19 24.06 В 4 н/о н/о +24.4 +13.8 52 +27 +27 жарко 1020.4 976.2
20 24.06 В 5 н/о н/о +23.1 +13.4 54 +26 +26 жарко 1021.2 976.7
21 24.06 В 3 н/о н/о +21.4 +13.5 61 +24 +24 комфорт 1021.7 977.0
22 24.06 В 3 н/о н/о +20.5 +13.4 64 +23 +23 комфорт 1021.6 976.7
23 24.06 СВ 4 н/о н/о +19.7 +13.6 68 +21 +21 комфорт 1021.5 976.5
00 25.06 СВ 3 н/о н/о +18.8 +13.7 72 +20 +20 1021.4 976.3
01 25.06 СВ 2 н/о н/о +18.1 +13.9 76 +19 +19 1021.1 975.9
02 25.06 В 1 н/о н/о +17.5 +13.9 79 +19 +19 1020.9 975.6
03 25.06 СВ 1 н/о н/о +16.8 +13.7 82 +18 +18 1020.9 975.5
04 25.06 ЮЗ 2 н/о н/о +16.6 +13.5 82 +17 +17 1020.9 975.5
05 25.06 С 1 45 км ясно +17.2 +13.8 80 +18 +20 1021.0 975.7
06 25.06 В 2 45 км ясно +19.1 +14.6 75 +21 +25 комфорт 1020.9 975.9 +16.2 +25.6
07 25.06 СВ 3 н/о н/о +21.5 +16.1 71 +25 +25 комфорт 1020.6 976.0
08 25.06 В 2 н/о н/о +24.0 +16.1 61 +27 +27 жарко 1020.5 976.2
09 25.06 СВ 4 60 км ясно +25.7 +16.4 56 +29 +39 душно 1020.3 976.3
10 25.06 В 4 н/о н/о +28.0 +18.1 55 +33 +33 очень
душно
1019.9 976.3
11 25.06 В 3 н/о н/о +28.8 +18.0 52 +33 +33 очень
душно
1019.8 976.3
12 25.06 СВ 5 н/о н/о +29.7 +18.2 50 +34 +34 очень
душно
1019.6 976.2
13 25.06 В 4 н/о н/о +31.3 +19.2 49 +37 +37 очень
душно
1019.1 976.0

 

Местоположение метеостанции Кремсмюнстер (Австрия): широта 48.05 долгота 14.13 высота над уровнем моря 389 м.

В архиве по умолчанию представлена погода в Кремсмюнстере за последнюю неделю. Архивные данные за месяц целиком и за предыдущие месяцы, начиная с января 2011 года, Вы можете получить, выбрав интересующий диапазон дат из раскрывающегося списка и нажав кнопку "Ввод!".


*Определитесь, кто Вы:
робот инопланетянин человек

Внимание! Время в таблицах - всемирное. Для получения местного времени необходимо прибавить поправку, которая равна 1 ч.

Смотрите также архив погоды в соседних городах и на ближайших метеорологических станциях:

Погода в Вельс / Шлайсхайм (Австрия) (14 км)
Погода в Линце (Австрия) (20 км)
Погода в Гмундене (Австрия) (30 км)
Погода в Линце город (Австрия) (30 км)
Погода в Вольфсегг-ам-Хаусрукке (Австрия) (35 км)
Погода в Виндишгарстене (Австрия) (39 км)
Погода в Фойеркогеле (Австрия) (40 км)
Погода в Вайдхофен-ан-дер-Ибсе (Австрия) (49 км)
Погода в Вайдхофен-ан-дер-Ибсе (Австрия) (52 км)
Погода в Рид-им-Иннкрайсе (Австрия) (52 км)

Пояснения к столбцам:

Ветер - указаны скорость ветра в м/с - средняя за 10 мин, порывы в срок и между сроками (в фигурных скобках) и направление, откуда дует ветер: С - северный, СВ - северо-восточный, В - восточный, ЮВ - юго-восточный, Ю - южный, ЮЗ - юго-западный, З - западный, СЗ - северо-западный.
Видимость - горизонтальная дальность видимости в метрах или километрах. При видимости от 1 до 10 км при отсутствии осадков обычно наблюдается дымка, при ухудшении видимости до 1 км и менее - туман. В сухую погоду видимость может ухудшаться дымом, пылью или мглою.
Явления - указаны атмосферные явления, наблюдавшиеся в срок или в последний час перед сроком; фигурными скобками обозначены явления, наблюдавшиеся между сроками (за 1-3 часа до срока); квадратными скобками обозначены град или гололедные отложения с указанием их диаметра в мм.
Облачность - указаны через наклонную черту общая и нижняя облачность в баллах и высота нижней границы облаков в метрах; квадратными скобками обозначены формы облаков: Ci - перистые, Cs - перисто-слоистые, Cc - перисто-кучевые, Ac - высококучевые, As - высокослоистые, Sc - слоисто-кучевые, Ns - слоисто-дождевые, Cu - кучевые, Cb - кучево-дождевые. Подробнее классификацию облаков см. в Атласе облаков (PDF).
T - Температура воздуха - температура, измеренная на высоте 2 м над землей.
Td - Температура точки росы - температура, при понижении до которой содержащийся в воздухе водяной пар достигнет насыщения.
f - Относительная влажность воздуха - влажноcть воздуха, измеренная на высоте 2 м над землей.
Te - Эффективная температура - температура, которую ощущает одетый по сезону человек в тени. Характеристика душности погоды. При расчете учитывается влияние влажности воздуха и скорости ветра на теплоощущения человека.
Tes - Эффективная температура на солнце - температура, которую ощущает человек, с поправкой на солнечный нагрев. Характеристика знойности погоды. Зависит от высоты солнца над горизонтом, облачности и скорости ветра. Ночью, в пасмурную погоду, а также при ветре 12 м/с и более поправка равна нулю.
P - Атмосферное давление - приведенное к уровню моря атмосферное давление.
Po - Атмосферное давление - измеренное на уровне метеостанции атмосферное давление.
Tmin - Минимальная температура - минимум температуры воздуха на высоте 2 м над землей.
Tmax - Максимальная температура - максимум температуры воздуха на высоте 2 м над землей.
R - Количество осадков - Количество выпавших осадков за период времени, мм. При наведении курсора мыши на число - период времени, за который выпало указанное количество осадков.
R24 - Количество осадков - Количество выпавших осадков за 24 часа, мм.
S - Снежный покров - Высота снежного покрова, см. При наведении курсора мыши на число - состояние снежного покрова и степень покрытия местности в баллах.